User: anonymous   Login
Location: Unspecified
(0.0000°N, 0.0000°E)
Time: 03:49:56
(UTC+00:00)
Language:

Landsat 7 - Orbit

View from above orbital plane
View from above orbital plane
View from above satellite
View from above satellite

Ground track
Ground track

The orbit data is extracted from the following two-line orbital elements,

1 25682U 99020A   16044.78624946  .00000320  00000-0  81142-4 0  9999
2 25682  98.2287 116.7975 0001218  90.6234 269.5094 14.57109940895325
Epoch (UTC): 13 February 2016 18:52:11
Eccentricity: 0.0001218
inclination: 98.2287°
perigee height: 701 km
apogee height: 703 km
right ascension of ascending node: 116.7975°
argument of perigee: 90.6234°
revolutions per day: 14.57109940
mean anomaly at epoch: 269.5094°
orbit number at epoch: 89532

The dashed part of the orbit path shows where the satellite is in the earth's shadow,  

DLR